| time (UTC) | temp F | wind direction | speed MPH | gust MPH | rain 1hr in | rain 24hr in | rain mn in | humidity % | barometer mb |
| 20260904215801 | 64 | 270 | 0.0 | 0.0 | 0.00 | 2.99 | 1.68 | 71 | 1005.9 |
| 20260904205802 | 64 | 315 | 0.0 | 0.0 | 0.00 | 2.99 | 1.68 | 71 | 1005.3 |
| 20260904195801 | 64 | 292 | 0.0 | 0.0 | 0.00 | 2.99 | 1.68 | 71 | 1004.7 |
| 20260904185801 | 64 | 315 | 0.0 | 0.0 | 0.00 | 3.01 | 1.68 | 73 | 1004.5 |
| 20260904175801 | 63 | 292 | 0.0 | 0.0 | 0.00 | 3.01 | 1.68 | 72 | 1003.7 |
| 20260904165801 | 64 | 315 | 0.0 | 0.0 | 0.00 | 3.01 | 1.68 | 75 | 1002.9 |
| 20260904155802 | 64 | 292 | 0.0 | 0.0 | 0.00 | 3.01 | 1.68 | 76 | 1002.0 |
| 20260904145802 | 64 | 270 | 0.0 | 0.0 | 0.01 | 3.01 | 1.68 | 83 | 1001.4 |
| 20260904135802 | 63 | 292 | 0.0 | 0.0 | 0.01 | 2.99 | 1.67 | 94 | 1000.6 |
| 20260904125802 | 63 | 247 | 0.0 | 0.0 | 0.01 | 3.01 | 1.66 | 95 | 1000.3 |
| 20260904115801 | 62 | 225 | 0.0 | 0.0 | 0.01 | 3.00 | 1.65 | 95 | 1000.2 |
| 20260904105802 | 62 | 247 | 0.0 | 0.0 | 0.09 | 2.98 | 1.64 | 95 | 1000.4 |
| 20260904095804 | 62 | 270 | 0.0 | 0.0 | 0.61 | 2.89 | 1.54 | 95 | 1000.5 |
| 20260904085802 | 62 | 315 | 0.0 | 0.0 | 0.34 | 2.27 | 0.93 | 94 | 999.7 |
| 20260904075801 | 62 | 270 | 0.0 | 0.0 | 0.27 | 1.93 | 0.59 | 94 | 1000.5 |
| 20260904065801 | 63 | 270 | 0.0 | 0.0 | 0.12 | 1.66 | 0.31 | 93 | 1001.6 |
| 20260904055801 | 64 | 270 | 0.0 | 0.0 | 0.12 | 1.54 | 0.18 | 92 | 1002.5 |
| 20260904045802 | 65 | 270 | 0.0 | 0.0 | 0.03 | 1.42 | 0.05 | 91 | 1002.8 |
| 20260904035801 | 65 | 247 | 0.0 | 0.0 | 0.00 | 1.39 | 0.02 | 92 | 1003.3 |
| 20260904025802 | 64 | 225 | 0.0 | 0.0 | 0.00 | 1.39 | 0.02 | 93 | 1004.5 |
| 20260904015802 | 64 | 202 | 0.0 | 0.0 | 0.02 | 1.39 | 0.02 | 92 | 1005.7 |
| 20260904005801 | 64 | 225 | 0.0 | 0.0 | 0.00 | 1.37 | 0.00 | 87 | 1006.8 |
| 20260903235801 | 64 | 202 | 0.0 | 0.0 | 0.00 | 1.37 | 0.01 | 84 | 1007.8 |
| 20260903225801 | 64 | 225 | 0.0 | 0.0 | 0.00 | 1.37 | 0.01 | 84 | 1008.4 |